Theta_e
313 313 314 314 313 313 313 314 315 315 315 319 322 318 315 317 320 319 315 314 314 313 311 310 309 308 306 305 304 303 302 302 302 302 302 302 301 301 300 300 299 299 300 300 300 301 301 302 302 303 304 305 306 306 307 308 309 309 310 310 311 312 312 313 314 315 318 320 323 324 325 326 326 327 327 327 328 328 328 328 327 326 325 325 326 325 325
313 313 313 313 313 313 312 312 313 313 313 315 316 315 314 316 318 316 313 313 312 311 309 308 307 306 304 303 303 302 301 302 302 302 302 301 301 301 301 300 300 299 300 300 300 300 300 301 301 301 302 303 304 305 306 307 308 308 309 310 310 310 311 311 312 314 315 318 320 323 324 325 326 327 327 326 326 327 327 327 327 326 325 324 325 325 325
313 313 313 313 313 313 313 312 312 312 313 313 314 314 314 314 314 312 311 311 310 308 307 306 305 304 303 303 303 302 302 301 302 301 301 301 301 302 302 302 301 300 300 300 300 300 300 300 300 300 301 301 302 304 305 306 307 307 308 309 309 309 310 310 311 312 313 316 318 321 323 324 325 326 326 325 325 325 326 327 326 326 326 325 325 325 325
315 313 313 313 313 313 313 313 313 312 313 313 313 313 312 312 312 310 310 310 309 306 305 305 304 303 303 302 302 302 301 301 301 301 301 301 301 302 302 302 301 301 301 301 301 300 300 300 300 300 300 300 300 301 303 305 306 307 307 308 308 309 309 310 310 311 311 313 315 318 320 322 323 325 326 325 324 324 325 327 326 326 326 325 325 325 325
315 313 313 313 314 315 316 313 311 312 312 312 311 311 311 311 311 311 312 310 307 305 305 304 303 303 302 302 302 302 301 301 301 301 301 301 301 301 301 302 302 301 301 301 301 301 300 300 300 300 299 299 300 300 301 302 304 306 307 307 307 308 308 309 309 310 310 311 312 315 317 320 321 323 324 325 325 325 325 326 326 326 326 326 326 325 325
316 313 312 313 315 316 315 310 309 310 311 310 310 310 309 309 309 310 309 306 305 305 304 303 303 302 302 302 301 301 301 300 300 300 301 301 300 300 301 301 301 301 301 301 301 301 300 300 300 300 299 299 299 300 300 300 301 303 305 306 307 307 307 308 308 308 309 310 310 311 313 316 319 321 322 323 324 325 325 326 326 326 326 326 326 325 325
315 313 313 316 316 313 310 308 308 309 308 308 308 308 307 307 307 307 306 305 304 304 303 302 302 301 301 301 301 301 301 300 300 300 300 300 300 300 300 301 301 301 301 301 301 300 300 300 300 300 300 299 299 299 300 300 300 300 302 304 306 306 307 307 307 308 308 309 309 310 311 312 315 318 320 321 321 322 323 324 325 326 326 326 325 325 324
314 313 314 316 314 309 308 308 308 308 309 308 308 308 307 306 306 306 305 304 303 303 302 302 301 301 301 301 301 300 300 300 300 300 300 300 300 300 300 300 300 300 301 301 300 299 299 299 300 300 300 300 299 299 300 300 300 300 300 301 303 305 306 307 307 307 307 307 308 308 309 310 311 313 315 317 318 319 320 321 322 323 325 326 326 325 324
313 313 313 313 311 310 310 309 308 309 309 309 309 309 307 306 305 305 304 303 303 302 302 301 301 301 301 301 301 300 300 300 300 300 300 300 300 300 300 300 300 300 300 300 299 299 299 299 299 300 300 300 300 299 300 300 300 300 300 300 301 303 305 306 307 307 307 307 306 307 307 308 308 309 310 312 313 314 315 316 318 319 321 323 324 325 324
310 312 312 312 313 313 312 310 308 308 308 307 307 309 308 306 305 304 303 303 302 302 301 301 301 302 302 301 301 300 300 300 300 300 300 300 300 300 300 300 300 300 300 299 298 298 298 299 299 299 300 300 300 300 300 300 300 300 300 300 300 300 302 304 306 306 306 306 306 306 306 306 307 307 307 308 309 309 311 312 313 315 316 318 320 321 322
309 311 312 311 312 311 310 309 308 308 308 307 307 309 310 306 304 304 303 302 302 302 301 301 302 303 303 302 301 300 300 300 300 300 300 300 300 300 300 300 300 299 299 299 298 298 298 298 298 299 299 300 300 300 300 300 300 300 300 300 300 299 300 302 304 305 305 305 305 306 306 306 306 306 306 306 306 307 307 308 309 311 312 313 315 316 318
308 308 309 309 309 308 307 308 308 307 307 306 308 311 311 306 304 304 303 303 303 302 302 302 303 304 304 302 301 300 300 300 300 300 300 300 299 299 300 299 299 299 299 298 298 298 298 298 297 297 298 298 299 299 300 300 300 300 300 300 300 299 299 300 302 303 304 305 305 305 305 305 305 305 305 305 305 305 306 306 307 308 308 309 311 312 313
307 308 308 308 307 307 307 307 307 307 307 308 310 311 309 305 304 304 303 303 303 302 302 303 302 302 302 301 300 300 300 299 299 300 300 300 299 299 299 298 298 298 298 298 298 298 298 297 297 297 297 297 298 299 299 300 300 300 300 300 300 300 299 299 299 301 303 303 304 304 304 304 304 304 304 304 304 304 305 305 306 306 307 307 308 309 310
305 305 307 307 307 306 306 306 306 307 309 310 309 307 305 304 304 304 304 303 303 302 303 303 302 301 301 300 300 299 299 299 299 299 299 298 298 298 298 297 297 297 297 298 298 298 298 297 297 297 296 297 297 298 299 299 300 299 300 300 300 300 300 299 298 299 300 301 302 303 303 303 303 303 303 304 304 304 304 304 305 305 306 306 307 307 308
303 304 306 308 308 305 304 306 307 308 309 308 306 303 303 304 304 304 304 303 302 303 303 302 301 300 300 299 299 299 299 299 299 298 298 298 298 298 298 297 296 296 297 297 297 297 297 297 297 297 297 296 297 298 298 299 299 299 299 300 300 300 300 300 299 299 299 299 299 300 301 301 301 302 303 303 303 303 303 304 304 304 305 305 306 306 307
304 307 307 306 305 303 303 306 307 307 306 304 303 303 303 303 303 304 303 302 302 303 302 300 300 299 299 299 299 299 299 298 298 298 298 298 298 298 297 296 295 294 295 296 296 297 297 297 297 297 297 296 296 297 298 298 299 299 299 299 299 299 299 299 299 299 299 299 298 298 298 298 298 300 301 302 303 303 303 303 303 303 303 304 304 305 304
303 305 304 303 302 302 303 304 304 303 303 302 303 303 303 302 303 303 303 302 303 303 302 300 300 300 300 299 299 299 298 299 299 299 298 298 297 297 296 295 294 293 293 293 295 296 297 297 297 297 297 297 296 297 298 298 298 299 299 298 298 298 298 298 299 299 299 299 299 298 298 298 297 298 298 299 300 301 301 302 302 302 302 302 303 303 303
303 303 303 302 302 302 302 302 302 302 302 302 302 303 302 301 302 303 303 303 303 302 301 300 300 300 299 299 299 299 299 299 299 298 298 297 297 296 295 295 294 293 292 292 293 295 296 297 297 297 297 297 296 296 297 298 298 298 298 298 298 298 298 298 297 298 298 299 299 299 299 298 298 298 297 297 297 298 298 299 300 300 301 301 301 302 302
304 304 303 302 302 302 301 301 301 301 301 301 301 302 301 301 301 302 303 302 302 301 300 300 300 299 299 299 299 299 299 299 298 297 297 297 296 296 295 294 293 292 292 293 293 294 295 296 297 297 297 297 297 296 296 297 297 298 298 298 298 298 298 297 297 297 298 298 299 299 299 299 298 298 298 297 297 297 297 297 297 298 299 299 300 300 301
304 304 303 302 301 301 301 301 301 300 300 301 301 301 301 301 301 302 302 301 301 301 301 300 299 299 299 299 299 299 299 298 297 297 297 297 296 295 295 294 293 292 293 294 294 294 295 295 296 296 297 297 297 297 297 296 296 297 297 298 298 298 298 297 297 297 297 298 298 298 299 299 298 298 297 297 297 297 297 297 296 297 297 298 298 299 300
303 303 302 301 301 301 301 301 300 300 300 301 300 301 301 301 301 301 301 301 301 301 300 299 299 299 299 299 299 299 298 297 297 297 297 296 296 295 294 293 293 293 294 294 294 294 294 294 294 295 295 296 297 297 297 297 296 296 296 297 298 298 297 297 297 297 297 298 298 298 299 299 298 298 297 297 297 297 297 297 296 296 296 297 297 297 298
303 303 302 302 303 302 301 300 300 300 300 300 300 300 300 300 300 300 301 301 300 300 299 299 299 299 299 298 298 298 297 297 297 297 297 296 296 294 294 293 293 294 294 294 294 294 294 294 294 293 293 294 295 296 297 297 297 296 296 296 297 297 297 297 297 297 297 298 298 298 298 298 298 298 297 297 297 296 296 297 297 296 296 296 297 297 297
304 303 302 302 303 302 301 300 300 300 300 300 300 300 300 300 300 300 300 300 299 299 299 299 299 299 298 298 298 297 297 297 297 297 297 296 295 294 294 293 293 294 294 294 294 294 294 294 294 294 293 292 293 294 296 297 297 297 296 296 297 297 297 297 297 297 297 297 297 297 298 298 298 298 298 298 297 297 296 296 296 296 296 296 296 297 297
303 303 302 302 302 301 300 300 300 300 300 300 300 300 300 300 300 300 299 299 299 299 299 299 298 298 298 298 298 297 298 298 297 297 297 296 295 294 294 293 293 293 294 294 294 294 294 294 294 294 293 291 291 293 295 297 297 297 296 296 296 297 297 297 297 297 296 296 296 296 297 298 298 298 298 298 298 297 297 296 296 296 296 296 296 296 297
302 301 301 301 301 301 300 300 300 300 300 300 300 300 300 300 299 299 299 299 299 299 298 298 298 298 298 298 298 298 298 298 298 297 297 296 295 294 294 294 293 294 294 294 294 294 294 294 294 293 292 291 291 292 294 296 297 297 296 296 297 297 297 296 297 297 296 296 296 296 296 297 297 297 298 298 298 298 297 297 296 296 296 296 295 296 296
301 301 301 301 301 300 300 300 300 300 300 299 299 299 299 299 299 299 298 298 298 298 298 298 298 298 298 298 298 298 298 298 298 297 297 296 295 294 294 294 294 294 294 294 294 294 294 294 294 292 292 293 294 294 294 295 297 297 296 296 297 298 297 296 296 296 296 296 296 296 296 296 296 297 297 297 297 297 297 297 297 296 295 295 295 295 295
301 301 301 301 301 300 300 300 300 299 299 299 299 299 299 299 299 298 298 298 298 298 298 298 298 298 298 298 298 298 298 298 298 297 296 296 295 294 295 295 294 294 294 294 294 294 294 294 293 292 293 295 296 295 295 296 297 297 296 296 297 298 297 296 296 296 296 296 295 295 295 295 295 296 296 296 297 297 297 297 297 296 295 295 294 294 295
300 301 301 301 301 300 300 300 299 299 299 299 298 299 299 298 298 298 298 298 298 298 298 298 298 298 298 298 298 298 298 298 298 297 296 295 295 295 295 295 295 295 294 294 294 294 294 293 292 292 294 296 295 295 295 296 297 297 297 297 297 297 297 297 296 296 296 296 296 295 295 295 295 295 295 295 295 296 296 296 296 296 295 294 294 294 295
300 300 300 300 300 300 299 299 299 299 299 299 298 298 298 298 298 298 298 298 298 298 298 299 299 299 299 299 298 298 298 298 298 297 296 295 295 295 295 295 296 295 295 294 294 295 294 293 292 293 295 296 295 295 296 296 297 297 297 297 297 297 297 297 297 296 296 296 296 296 295 295 295 295 294 294 294 295 295 296 295 295 295 294 293 294 294
300 300 300 300 299 299 299 299 299 299 298 299 299 299 299 299 299 299 299 299 299 299 299 299 299 299 299 299 298 298 298 298 298 297 296 296 295 295 295 295 296 296 295 294 295 295 294 293 292 293 295 296 296 296 296 296 297 297 297 297 297 297 296 296 296 297 297 296 296 296 296 295 294 294 294 294 293 293 294 295 295 295 294 294 293 293 292
299 299 299 299 299 299 298 298 299 299 299 299 299 299 299 299 299 299 299 299 299 299 300 299 299 299 299 299 299 298 298 298 298 297 296 296 295 295 296 296 296 297 296 295 295 295 295 293 292 292 294 296 296 296 296 296 297 297 297 297 297 296 296 296 296 296 297 297 296 296 296 295 294 294 294 294 293 293 293 294 294 294 294 293 293 292 292
299 299 299 299 299 299 299 299 299 299 299 299 299 299 299 299 299 300 300 300 300 300 300 299 299 300 299 299 299 298 298 298 298 297 296 295 295 295 296 296 297 297 297 296 295 295 295 294 292 292 293 295 296 296 296 296 296 296 296 296 296 296 296 296 296 296 297 297 297 296 295 295 294 294 294 294 294 293 293 293 293 293 293 293 293 292 292
299 299 299 299 299 299 299 299 299 299 299 299 299 300 300 300 300 300 300 299 299 299 299 299 299 299 299 299 299 298 298 298 298 297 296 296 296 296 297 297 297 298 297 296 295 295 295 295 293 292 292 293 295 295 296 296 296 296 296 296 296 297 297 297 297 297 297 297 296 296 295 295 294 294 294 294 294 293 293 293 293 293 293 293 293 292 291
299 299 299 299 299 299 299 299 299 299 300 299 300 300 300 300 300 299 299 299 299 299 299 299 299 299 299 299 299 298 298 298 298 297 297 297 297 297 298 298 298 298 296 295 295 295 295 295 294 293 292 292 293 293 293 294 295 296 296 296 296 297 297 297 297 297 297 297 296 296 295 295 295 295 294 294 294 293 293 293 293 293 293 293 293 292 291
299 299 299 299 299 299 299 299 299 300 300 300 300 300 300 299 299 299 299 299 299 299 299 299 299 299 299 299 298 299 299 298 298 298 298 298 298 298 298 298 298 298 297 295 295 295 296 295 294 293 292 292 292 292 292 291 292 293 295 296 297 296 296 296 296 296 296 296 296 296 296 295 295 296 295 295 295 294 293 293 293 293 294 293 293 292 292
299 299 299 299 300 299 299 300 299 299 299 299 299 299 299 299 299 299 299 299 299 299 299 299 299 299 299 299 299 299 299 299 298 298 298 298 298 298 298 298 298 298 297 296 295 296 296 295 294 293 292 292 292 292 292 291 290 291 293 295 296 297 296 296 296 296 296 296 296 296 295 295 295 296 296 296 295 294 293 293 292 292 293 293 293 292 292
299 299 299 299 299 299 299 299 299 299 299 299 299 299 299 299 299 299 299 299 299 299 299 299 299 299 299 299 299 299 299 299 299 299 299 299 298 298 298 298 298 298 298 297 296 296 296 296 294 293 292 291 291 292 292 291 290 289 289 291 294 296 297 296 296 296 296 296 296 296 296 296 295 295 296 296 295 294 294 293 292 292 292 293 293 292 292
299 299 299 299 299 299 299 299 299 299 299 299 299 299 299 299 299 299 299 299 299 299 299 299 299 299 299 299 299 299 299 299 299 299 299 299 299 298 298 298 298 298 298 298 296 296 296 296 295 293 291 291 291 291 291 291 290 290 289 288 290 293 295 296 296 296 296 295 295 296 296 296 295 295 295 296 295 295 294 293 293 292 292 293 293 292 292
299 299 299 299 299 299 299 299 299 299 299 299 299 299 299 299 299 299 299 299 299 299 299 299 299 299 299 299 299 299 299 299 299 299 299 299 299 299 298 298 298 298 298 298 297 296 296 296 295 293 292 292 291 292 292 292 292 291 291 289 288 289 292 295 296 296 295 294 294 295 296 296 295 295 295 295 295 295 294 293 293 293 292 293 293 292 292
299 299 299 300 300 300 300 300 300 299 299 299 299 299 299 299 299 299 299 299 299 299 299 299 299 299 299 299 299 299 299 299 299 299 299 299 299 299 299 299 299 298 298 298 298 297 297 296 295 294 294 294 293 293 293 293 293 292 292 291 289 288 290 293 296 296 294 293 294 295 296 296 295 294 295 295 295 295 294 294 294 294 293 293 293 293 292
299 300 300 300 300 300 300 300 300 299 299 299 299 299 299 299 299 299 299 299 299 299 299 299 299 299 299 299 299 299 299 299 299 299 299 298 299 299 299 298 298 298 298 298 298 297 297 296 295 294 294 294 294 293 293 293 293 293 292 291 290 288 289 292 295 295 294 293 294 294 295 295 295 294 294 295 295 295 295 294 294 294 293 293 293 293 293
300 300 300 300 300 300 300 300 300 299 299 299 299 299 299 299 299 299 299 299 299 299 298 299 299 299 299 300 299 299 299 299 299 299 299 299 299 299 298 298 298 298 297 297 298 297 297 296 295 294 294 294 294 294 293 293 293 293 292 291 289 288 288 290 293 294 294 294 293 293 294 295 295 294 294 294 295 295 295 294 293 294 294 293 293 293 293
300 300 300 300 300 300 300 300 299 299 299 299 299 299 299 299 299 299 299 299 299 298 298 298 298 299 299 299 299 299 299 299 299 299 299 299 299 299 298 298 298 298 297 297 297 297 297 296 295 295 295 294 294 294 294 293 293 293 292 291 290 289 288 289 291 293 293 293 293 293 293 294 294 294 294 294 294 294 295 294 293 293 294 293 293 293 293
301 300 300 300 300 300 300 300 299 299 299 299 299 299 299 299 299 299 299 299 298 298 298 298 298 298 299 299 299 299 299 299 299 299 299 299 299 299 298 298 298 297 297 297 297 297 296 295 295 295 295 295 294 294 294 293 293 293 293 292 292 291 290 290 291 292 292 293 293 293 293 293 293 294 295 295 294 294 294 294 294 293 293 293 293 293 293
301 300 300 300 300 299 299 299 299 299 299 299 299 299 299 299 299 299 299 299 298 298 298 298 298 298 298 298 299 299 299 299 299 299 299 298 299 299 298 298 298 297 297 297 297 297 296 295 295 295 295 295 294 294 294 294 293 293 293 293 292 292 292 291 291 292 292 292 292 292 292 292 292 293 294 295 295 294 294 294 294 293 293 293 293 293 292
300 300 300 300 299 299 299 299 299 299 299 299 299 299 299 299 299 299 298 298 298 298 298 298 298 298 298 298 298 299 299 299 299 299 298 298 298 298 298 297 297 297 297 297 297 296 296 295 295 295 295 294 294 294 294 294 293 293 293 293 293 292 292 292 292 291 291 290 289 290 290 291 292 293 294 295 295 294 294 294 294 294 293 293 293 292 292
300 299 299 299 299 299 299 299 299 299 299 299 299 299 299 298 298 298 298 298 298 298 298 299 299 298 298 297 298 299 299 299 299 298 298 298 297 297 297 297 297 297 297 297 296 296 296 295 295 295 295 294 294 294 294 294 293 293 293 293 293 292 292 292 292 292 292 291 291 290 290 290 291 292 293 294 294 294 293 293 294 294 294 293 293 292 292
299 299 299 299 299 299 299 299 299 299 299 299 299 299 298 298 298 298 298 298 298 299 299 299 298 298 298 298 298 298 298 298 298 298 297 297 297 296 296 297 297 297 297 297 297 296 296 295 295 295 295 294 294 294 294 294 294 294 293 293 293 292 292 292 292 292 292 292 292 292 292 291 291 291 291 291 293 293 293 293 293 294 294 294 293 293 292
300 300 299 299 299 299 299 299 299 299 299 299 298 298 298 298 298 298 298 298 298 299 299 299 298 298 298 298 298 298 298 297 297 296 296 295 296 296 296 296 297 297 297 297 297 296 296 296 295 295 295 295 294 294 294 294 294 294 294 294 293 293 292 292 292 292 292 292 292 292 292 292 292 291 291 290 290 291 291 292 293 294 294 294 293 293 292
300 300 300 299 299 299 299 299 299 299 299 298 298 298 298 298 298 298 297 298 298 298 299 298 298 298 298 298 298 297 297 297 296 295 295 295 295 296 296 296 297 297 296 296 296 296 296 296 296 295 295 295 295 294 294 294 294 294 294 294 294 293 293 292 292 292 292 292 292 292 292 292 292 292 292 292 290 289 289 290 292 293 293 293 293 293 293
300 300 300 300 299 299 299 299 299 299 298 298 298 298 298 298 298 297 297 297 298 298 298 298 298 297 297 297 297 297 297 297 296 296 295 295 296 296 296 296 296 296 296 296 296 296 296 296 296 295 295 295 295 295 294 294 294 295 294 294 294 294 293 292 292 292 292 292 292 292 292 292 292 292 292 292 292 291 289 289 289 291 293 293 293 293 293
300 300 300 300 299 299 299 299 298 298 298 298 298 298 298 298 297 297 297 297 297 297 297 297 297 297 297 297 297 297 297 297 296 296 295 295 296 296 296 296 295 295 295 295 295 295 295 295 295 295 294 294 294 294 294 294 294 294 294 294 294 294 293 293 292 292 292 292 292 292 292 292 292 292 292 292 292 292 291 289 289 290 292 293 293 293 293
Wind_Speed
11 9 9 11 13 13 12 12 11 10 9 7 6 5 2 2 3 5 12 16 13 11 11 11 10 10 10 11 11 11 11 12 13 14 15 16 16 17 19 20 21 22 23 24 25 26 26 27 27 27 26 26 25 24 24 25 25 26 27 27 28 30 30 30 28 23 15 11 9 9 9 8 6 4 5 6 7 9 10 11 12 12 14 14 13 14 16
13 11 10 11 14 15 14 15 14 12 13 14 12 10 8 8 10 14 18 16 11 9 9 10 12 14 14 13 12 12 12 12 13 14 15 15 16 17 19 20 20 21 22 24 25 26 27 28 29 30 30 30 28 26 25 25 26 27 27 27 28 29 31 32 31 28 21 15 11 9 8 8 6 4 5 6 7 9 10 10 10 11 13 14 13 13 15
10 10 11 12 15 18 16 15 13 12 13 14 13 12 12 13 15 17 19 16 9 7 10 14 15 15 15 13 12 12 12 12 12 13 15 15 15 16 17 18 18 20 21 23 25 25 26 27 28 29 30 31 30 29 27 26 26 26 26 27 28 29 30 31 32 31 28 21 14 11 8 8 7 5 5 7 8 10 10 9 10 12 13 14 13 14 16
5 6 11 11 12 16 16 14 12 11 10 9 8 7 5 8 15 18 16 12 7 8 14 16 14 15 15 13 13 12 11 12 13 13 15 15 15 16 16 17 17 18 20 23 24 25 25 26 27 28 29 30 31 31 30 28 26 25 26 27 28 29 30 30 31 32 32 28 22 15 10 9 8 8 8 9 10 11 11 10 11 13 14 15 14 15 17
5 5 4 2 2 7 8 7 7 6 7 8 8 8 7 7 13 13 9 8 9 12 15 13 12 14 14 13 12 11 12 14 15 15 16 16 16 16 16 16 17 18 20 22 23 24 25 25 25 26 27 28 29 30 31 30 29 28 28 28 29 30 31 31 31 32 32 32 29 23 15 10 9 8 9 10 11 12 12 12 12 13 14 15 15 16 18
7 7 2 2 3 3 3 3 4 2 7 11 10 9 8 7 7 8 9 12 13 13 13 12 12 13 13 12 11 11 13 15 16 16 17 17 16 17 17 17 17 18 18 19 21 22 23 24 23 24 25 26 27 28 29 30 31 31 31 31 31 31 32 32 33 33 33 33 33 30 24 16 10 7 7 8 10 12 12 14 14 14 15 15 15 16 17
7 4 2 3 4 1 2 2 5 8 12 15 15 13 10 9 12 15 15 13 13 13 14 15 16 16 15 14 12 12 13 15 17 17 17 16 16 16 16 16 16 16 16 18 19 21 22 23 23 23 24 25 25 26 28 29 31 33 33 33 32 32 32 33 34 35 35 34 33 33 31 26 18 11 8 7 8 10 12 14 16 17 17 17 17 17 17
4 3 1 3 4 2 3 5 7 8 8 9 11 11 10 8 11 14 14 13 14 17 17 17 18 18 16 15 12 12 14 15 16 17 16 16 16 15 15 15 14 14 15 16 18 20 21 22 22 22 23 24 25 25 27 29 31 32 34 35 34 32 32 33 34 34 35 36 35 34 33 32 28 22 16 12 10 10 11 13 15 16 18 19 20 19 19
2 5 5 4 4 3 3 4 3 3 2 1 2 5 6 5 7 12 14 14 16 18 18 18 19 17 15 13 10 10 14 15 15 15 15 14 14 14 13 13 12 12 13 14 16 18 20 21 21 21 22 22 24 25 27 29 30 32 34 35 35 33 32 31 32 33 34 35 36 36 34 34 33 31 27 22 19 15 13 12 13 14 16 19 21 21 21
2 5 6 4 3 3 3 4 3 2 2 1 1 4 4 4 8 13 15 15 17 19 18 19 18 14 10 6 5 9 13 14 13 13 12 11 11 11 11 10 10 11 12 13 15 17 20 21 22 21 21 21 22 24 26 28 30 32 34 34 34 33 31 30 30 32 33 34 35 35 35 34 33 32 31 29 26 23 20 17 15 13 14 16 18 19 20
3 4 5 4 3 1 3 7 5 3 4 3 2 2 3 5 10 15 17 18 19 20 20 19 14 8 4 4 6 9 12 12 11 11 10 10 10 9 9 10 10 10 11 12 14 17 20 22 22 21 21 21 22 23 25 27 29 31 32 32 32 32 31 29 29 30 31 32 33 33 33 32 32 31 30 28 26 25 23 21 18 16 13 13 15 16 17
4 4 3 3 1 1 3 6 5 3 4 3 3 2 4 9 13 15 17 19 20 20 20 16 8 2 3 8 11 11 11 10 8 8 8 8 8 8 8 9 9 10 11 12 14 17 20 21 22 22 22 23 23 23 24 25 28 29 29 29 29 30 30 29 29 29 30 31 31 31 30 30 29 29 27 25 23 22 21 19 17 15 13 11 10 11 12
4 4 3 2 1 1 3 4 3 4 4 4 2 0 5 14 17 15 17 19 19 19 17 10 4 3 8 14 16 13 10 7 6 6 7 7 8 8 8 8 10 11 12 13 15 16 18 19 21 23 24 25 25 25 24 25 26 26 26 26 26 28 29 29 29 29 28 28 28 27 27 27 27 26 25 23 21 20 19 17 16 14 13 11 9 6 6
3 3 3 2 1 2 3 3 3 4 4 2 1 4 9 17 18 16 17 18 18 17 13 10 12 15 17 19 17 11 8 8 8 9 10 10 9 9 9 10 12 13 13 14 14 15 16 18 20 22 25 26 26 26 27 26 25 23 23 23 24 26 28 29 30 29 27 26 25 24 24 24 23 22 21 20 20 19 17 16 15 15 15 14 13 11 9
2 2 2 3 2 3 4 4 3 2 1 2 8 12 13 16 18 18 17 19 19 17 15 16 20 21 19 17 13 11 12 14 14 13 11 9 8 9 10 12 14 14 14 14 14 15 15 16 18 21 24 26 27 27 28 28 25 23 22 22 23 25 26 28 29 29 28 27 25 24 24 24 23 22 20 17 17 17 17 16 16 15 15 14 14 14 14
1 2 2 1 1 3 4 3 2 2 2 7 16 18 15 15 17 18 19 20 20 18 18 23 23 20 18 16 15 16 17 16 14 12 10 9 9 10 11 13 15 14 14 14 14 14 14 15 16 19 22 24 26 26 27 26 25 23 22 22 24 25 26 26 27 28 28 28 27 26 25 25 25 25 23 20 18 17 16 16 15 15 14 13 13 13 14
2 3 3 2 3 4 3 2 3 7 9 11 16 20 18 15 15 18 23 23 20 18 21 25 23 20 19 19 19 19 17 14 12 10 10 10 10 11 11 13 14 15 14 13 12 13 13 14 15 17 19 22 24 24 23 23 23 22 22 23 24 24 25 26 27 27 27 26 27 27 26 26 25 26 26 25 24 22 20 19 18 17 15 13 11 11 13
6 7 7 5 6 7 7 7 8 10 12 12 13 17 17 14 13 18 23 23 22 22 25 26 23 22 22 21 19 17 15 12 10 10 10 9 10 10 11 13 14 15 15 15 13 12 13 13 14 15 16 18 20 21 21 20 20 20 20 21 22 22 24 25 26 25 24 24 25 25 25 26 26 26 27 26 26 25 24 24 24 22 19 16 13 10 9
4 4 5 6 8 9 10 11 11 10 10 11 12 14 15 14 15 18 21 23 25 26 26 25 25 24 23 21 18 15 12 11 10 9 9 9 10 11 13 14 15 16 17 18 17 15 13 13 14 14 14 15 16 18 18 18 18 18 18 19 20 20 22 24 25 24 22 21 22 23 23 24 25 27 28 28 28 28 27 25 25 24 23 22 20 17 13
4 6 8 9 11 11 10 10 11 11 12 13 14 16 18 19 21 22 24 25 27 27 26 27 27 25 22 19 16 13 11 10 10 9 9 9 10 12 13 14 15 16 17 19 19 18 16 14 14 14 14 14 14 14 16 17 17 18 18 18 18 19 20 23 24 23 21 20 21 21 21 22 23 25 27 29 30 30 29 27 25 24 23 23 23 23 21
7 8 10 12 12 10 8 9 11 12 14 18 19 21 24 26 27 27 26 25 25 27 28 27 26 24 21 17 14 12 11 10 10 9 9 10 11 12 13 14 14 15 16 17 17 18 17 16 15 15 14 14 14 13 13 14 16 17 18 19 18 18 19 21 22 22 22 21 21 20 19 19 21 22 24 27 28 29 28 27 26 24 23 21 21 21 21
5 6 12 12 8 7 8 11 13 15 19 24 26 27 28 29 28 27 26 25 25 27 27 25 22 21 19 15 13 12 11 10 9 9 9 9 11 12 13 13 13 13 14 15 15 16 16 17 17 17 17 15 14 13 12 12 14 16 18 19 18 17 18 20 20 21 21 21 21 21 19 18 19 20 21 23 25 27 27 26 26 25 24 22 20 18 18
5 13 18 12 9 13 14 15 17 21 24 28 29 28 27 26 26 27 29 29 28 27 24 21 19 18 16 14 13 11 9 9 8 8 8 9 10 11 12 12 12 12 12 12 13 14 15 16 17 18 19 18 15 13 11 10 11 13 17 19 18 17 17 18 19 20 21 20 20 20 19 17 17 17 18 20 21 24 24 23 23 23 23 22 20 17 15
11 18 18 13 15 19 19 20 23 24 26 28 28 26 26 27 27 28 30 30 28 25 22 19 17 16 15 13 11 9 8 7 6 7 7 8 9 11 11 11 10 9 9 10 12 13 14 16 17 19 20 20 16 12 10 9 9 11 14 17 17 16 17 18 18 18 20 20 20 20 19 18 17 17 17 18 19 20 20 20 21 22 22 21 20 18 15
19 20 18 19 24 25 24 26 26 24 25 29 29 27 28 28 28 28 28 26 24 22 20 18 16 15 13 10 8 7 6 6 5 6 6 7 8 10 11 11 9 8 7 8 10 13 14 15 17 19 20 19 16 12 9 8 7 9 13 16 16 16 16 17 16 17 18 19 20 20 20 19 19 18 18 18 18 18 18 19 20 21 20 20 19 18 16
23 24 25 28 29 28 27 26 24 24 27 29 29 29 28 27 26 25 24 22 21 19 18 16 14 12 10 9 7 5 5 5 6 5 6 6 7 8 10 11 10 8 6 6 9 12 14 15 17 20 20 18 15 12 9 8 7 8 11 14 15 15 15 15 15 16 17 18 19 19 20 20 19 18 18 18 18 18 19 19 19 20 20 20 19 18 17
25 29 32 30 25 24 27 26 25 27 28 28 28 27 25 24 23 22 21 20 18 17 15 14 12 10 9 7 5 4 4 5 6 5 4 5 6 7 8 10 11 9 7 7 8 11 13 15 18 19 18 17 15 12 8 7 7 7 10 13 14 15 15 14 14 14 15 16 17 17 18 19 19 19 18 18 18 19 19 19 19 20 19 19 20 19 17
27 29 31 28 25 26 29 29 28 28 27 26 26 25 23 22 22 20 19 18 16 15 13 12 10 9 7 5 3 3 4 5 5 4 3 3 4 5 7 9 10 10 9 8 8 10 13 15 17 17 16 16 15 11 8 7 7 7 9 12 13 14 15 14 13 13 13 13 15 15 16 17 19 19 19 18 18 17 18 18 19 18 17 18 19 18 17
26 26 28 29 30 31 31 30 29 28 27 26 25 23 22 22 21 19 18 17 16 14 12 10 9 7 5 3 3 4 5 5 5 4 2 2 3 4 5 7 9 10 10 8 8 10 13 16 16 15 14 14 13 11 8 7 7 7 8 10 11 13 14 15 13 12 11 12 13 14 14 16 18 20 20 20 18 16 15 16 17 16 16 17 16 15 16
24 25 28 29 30 31 31 30 29 27 26 25 23 22 21 21 19 18 17 16 15 14 11 9 8 7 5 4 4 4 5 5 4 3 2 2 2 3 4 6 8 10 9 8 8 10 13 15 16 15 13 12 12 10 8 7 7 7 8 9 10 12 14 15 14 12 10 10 11 11 13 15 18 20 21 21 20 17 14 14 15 15 14 15 15 16 18
27 28 29 30 30 31 31 29 27 26 24 23 21 20 20 18 18 17 15 14 13 12 10 9 8 7 6 5 4 4 4 4 4 3 2 1 1 2 3 5 7 9 9 8 9 10 12 14 15 14 12 11 10 9 8 7 7 8 9 10 12 13 14 15 14 11 9 9 9 10 11 13 16 19 21 22 21 18 14 13 13 14 14 14 16 19 21
30 29 29 29 29 29 28 26 25 24 22 21 20 19 18 17 16 14 12 10 8 8 8 7 6 7 7 6 4 4 4 4 3 3 2 1 0 2 3 4 7 9 9 8 8 9 10 12 14 14 12 10 9 8 7 7 8 9 11 12 13 14 14 14 13 11 8 7 8 8 9 12 15 18 21 21 21 18 15 12 13 14 14 15 17 20 20
31 28 26 26 26 26 25 24 23 22 21 20 18 17 15 13 12 10 9 7 6 5 5 5 4 6 8 7 5 4 4 3 3 2 2 1 1 2 3 4 7 9 9 7 6 7 8 10 12 13 12 11 10 9 8 8 9 10 12 12 13 13 13 13 12 10 7 6 6 7 8 10 13 17 19 20 20 19 16 12 11 12 13 14 17 19 18
29 28 27 27 27 26 25 24 23 21 20 18 16 14 12 11 10 9 9 8 7 6 5 4 4 6 7 6 6 5 4 4 4 3 2 2 1 2 3 5 7 9 8 6 5 5 7 9 11 12 12 11 11 10 10 10 10 11 12 12 12 12 12 13 12 10 7 6 6 6 7 9 11 13 16 17 19 20 18 13 9 9 11 12 15 17 17
26 26 26 26 25 24 23 22 21 19 18 16 14 13 12 11 11 11 10 9 8 7 5 4 5 6 6 5 5 5 4 4 4 4 3 2 1 2 3 4 6 7 7 6 4 4 6 8 10 11 12 11 11 11 11 11 11 11 11 11 10 10 10 11 12 11 8 6 6 7 8 9 10 12 14 16 17 19 19 15 11 10 11 12 13 13 14
24 23 22 22 21 20 19 18 17 16 15 14 13 12 12 12 12 12 10 9 8 7 6 4 4 4 4 4 4 5 4 4 4 3 2 2 2 2 3 4 5 6 6 5 3 3 5 8 9 10 11 11 11 12 12 12 12 11 10 10 9 9 9 9 10 10 9 8 8 9 10 11 12 13 14 14 16 18 18 16 13 11 11 12 13 13 12
22 20 19 18 17 16 16 15 15 14 13 13 13 14 13 13 13 12 11 10 8 7 5 4 3 3 3 4 4 5 4 3 2 2 1 1 2 3 3 3 4 5 6 4 3 3 5 7 9 10 10 10 10 11 11 12 12 12 11 10 9 9 9 9 10 10 10 11 12 11 11 12 13 13 13 13 13 15 16 15 13 11 11 12 13 12 11
20 20 19 17 15 14 13 14 14 14 14 14 14 15 14 13 13 13 11 9 7 6 4 3 3 3 4 5 5 5 4 4 2 2 3 3 3 4 4 3 4 5 5 4 3 3 4 6 8 9 9 9 10 10 11 12 13 13 13 11 10 9 9 9 10 10 11 12 13 12 11 11 12 13 13 13 12 12 14 14 13 12 11 12 12 11 10
21 20 19 17 15 14 13 13 15 15 15 14 14 14 14 14 14 12 10 7 6 5 4 4 5 5 6 7 6 6 5 5 5 4 4 5 5 5 4 4 5 5 5 5 3 3 3 5 7 8 9 9 10 10 11 12 14 14 15 14 12 11 9 8 8 9 10 12 13 12 10 10 11 12 13 13 12 11 12 12 12 11 11 11 11 10 9
22 21 19 17 15 14 13 14 15 15 14 14 14 14 15 15 14 11 8 7 6 5 4 4 5 6 6 7 7 6 5 6 6 6 6 5 5 5 5 5 5 6 6 5 4 3 3 4 6 7 8 9 9 10 12 14 15 16 16 15 14 12 10 8 7 7 9 11 12 10 8 8 10 11 12 13 12 10 10 11 10 9 9 11 11 10 8
23 22 19 18 16 14 13 14 15 14 14 14 13 14 14 14 13 10 8 7 6 5 5 5 6 6 6 7 6 5 5 5 6 5 5 5 5 5 5 5 5 5 6 5 4 4 3 3 4 6 7 8 8 9 11 14 15 16 16 16 14 12 10 8 7 7 9 11 12 11 9 8 9 10 11 12 12 12 10 10 9 9 8 9 10 9 7
24 22 21 19 17 15 14 15 16 15 14 14 13 13 14 13 11 9 8 7 7 6 6 6 5 5 6 7 6 5 5 6 6 5 5 5 6 5 4 4 5 5 6 5 4 4 3 2 4 6 7 8 8 9 11 13 15 16 16 16 14 11 9 8 7 8 9 11 11 12 11 9 9 10 10 11 13 13 11 9 8 9 9 8 9 9 8
24 23 21 19 17 16 16 16 15 14 14 14 14 14 13 13 12 10 9 8 8 7 5 4 4 4 5 6 6 6 6 6 6 6 6 6 6 5 4 5 5 6 6 5 4 4 3 2 3 5 6 7 8 9 10 11 13 14 16 15 13 11 9 7 7 8 9 10 10 11 11 10 10 10 9 10 11 12 11 9 8 9 9 9 8 9 9
23 22 20 18 18 17 17 16 15 14 15 15 15 15 14 14 13 11 10 9 8 7 6 4 3 4 5 6 7 7 7 7 7 7 7 6 6 6 6 6 6 6 6 4 4 5 4 2 3 5 7 8 8 9 10 10 11 12 14 15 14 13 11 9 8 8 9 10 11 11 11 11 11 10 9 9 10 11 11 10 9 9 10 9 8 8 10
23 21 20 19 19 18 17 16 15 14 14 14 15 15 15 14 13 12 10 9 9 8 6 4 3 4 6 7 7 7 7 7 7 7 7 6 6 7 8 7 7 6 5 4 4 5 5 3 4 6 8 9 8 9 9 9 9 10 12 13 14 14 13 11 10 10 11 12 13 13 12 12 11 10 9 8 9 9 10 10 9 9 9 9 8 8 8
23 22 21 20 18 16 15 14 14 13 13 14 16 16 15 14 13 11 10 10 9 8 7 5 5 6 6 6 6 6 7 7 7 7 7 7 8 9 9 8 8 7 6 4 4 5 6 5 5 7 8 9 9 8 8 8 8 8 9 11 12 13 13 12 12 12 12 13 12 11 10 10 10 9 9 9 9 9 10 10 10 9 8 8 8 7 7
24 23 21 18 16 15 15 14 14 14 15 16 16 15 14 13 12 11 11 10 10 9 9 8 8 8 7 6 5 6 7 7 7 8 8 8 9 9 9 8 8 8 7 5 5 6 6 6 6 7 8 9 9 9 8 8 8 9 10 10 10 11 12 13 12 11 12 12 12 11 10 9 9 8 9 9 10 10 10 11 11 10 8 7 6 6 5
23 21 19 18 17 16 15 15 16 16 16 16 15 14 13 13 12 11 11 11 11 11 11 10 9 8 7 6 6 7 7 8 7 8 8 9 8 8 8 7 8 8 7 6 6 6 7 7 7 7 8 8 9 9 9 9 9 10 11 12 11 11 11 12 12 11 10 11 11 11 12 12 11 10 9 9 10 11 11 11 11 10 8 7 7 6 4
21 20 19 18 17 17 17 17 17 16 16 15 14 12 12 12 12 11 10 11 12 12 11 10 8 7 7 7 7 7 7 7 7 7 8 8 7 7 7 7 7 7 7 7 6 7 7 8 8 9 9 10 10 11 11 11 11 12 12 13 13 13 12 12 12 11 10 10 10 10 11 11 12 13 12 10 9 9 10 11 10 9 8 8 8 8 6
21 20 20 19 19 18 17 17 16 15 15 14 14 13 12 12 11 10 9 10 11 11 10 9 8 7 7 7 7 7 6 6 6 6 6 6 5 5 6 6 6 6 6 6 6 6 7 8 9 9 10 11 12 12 12 12 12 12 12 13 14 14 14 13 12 12 11 10 10 10 10 11 11 13 14 14 12 10 9 10 11 10 9 9 10 10 8
22 22 21 19 18 17 16 15 14 14 14 14 14 13 13 12 10 8 8 9 9 9 8 7 7 7 7 7 7 7 6 6 6 5 5 4 4 3 4 4 4 4 4 5 5 6 7 8 9 10 10 11 11 12 12 12 13 13 13 14 14 14 14 14 14 13 12 12 12 12 12 12 11 12 13 13 14 13 11 9 10 10 9 9 10 10 9
22 21 20 18 16 15 14 14 14 13 14 14 14 14 13 12 9 7 7 8 8 8 7 7 6 6 6 6 7 7 7 6 5 5 4 3 3 3 3 3 3 3 4 4 5 6 6 7 8 9 10 11 12 13 14 14 15 15 15 15 15 15 14 14 14 14 14 13 12 13 13 13 12 12 12 12 12 13 12 10 8 7 7 7 8 9 9
Wind_Direction
64 70 80 81 84 82 68 59 50 37 37 58 77 75 58 110 128 140 148 147 140 140 145 140 130 122 114 106 100 97 94 91 89 84 76 70 65 62 59 55 52 50 48 46 43 39 37 35 32 29 26 23 22 21 22 22 23 23 25 26 27 28 28 27 24 16 2 340 321 313 314 321 320 285 275 271 249 238 240 243 242 241 240 237 235 239 244
62 64 79 87 90 86 69 59 55 54 61 71 80 87 81 80 97 121 133 131 120 121 127 116 111 110 107 103 100 96 93 89 86 83 78 72 68 64 61 58 54 52 50 47 43 40 37 35 33 31 29 26 23 22 22 22 23 24 24 26 28 29 28 28 28 25 16 0 340 323 309 311 323 305 265 259 258 255 250 247 248 247 244 240 240 244 247
63 71 89 92 91 88 75 61 53 56 66 68 73 86 88 89 103 116 119 117 110 106 107 107 109 109 106 104 100 95 92 89 86 83 78 74 70 65 62 59 55 52 49 45 42 39 36 34 34 32 31 29 26 25 24 23 23 23 23 25 27 28 28 28 29 29 26 19 3 343 325 311 308 302 278 264 263 263 256 246 243 244 244 243 245 250 250
78 97 102 96 94 91 77 55 42 43 58 64 63 68 81 119 129 125 120 122 130 126 118 114 111 108 105 103 99 95 94 92 89 84 80 77 73 68 64 60 56 51 47 43 40 37 34 33 33 31 30 29 28 27 26 24 23 22 22 24 26 28 29 28 28 29 28 27 20 6 348 329 315 300 281 268 265 265 262 255 247 244 245 245 247 251 251
123 159 123 66 134 113 80 36 15 31 77 89 74 55 58 116 137 135 134 137 135 131 127 121 114 112 107 104 102 100 100 98 94 89 88 84 78 73 67 62 58 52 46 42 38 35 33 32 31 31 30 29 28 27 27 26 25 24 23 24 25 28 29 28 28 28 27 28 27 22 10 353 335 314 289 275 274 274 270 266 262 258 254 251 251 252 251
147 182 249 294 198 143 71 354 336 39 104 97 84 65 57 75 102 103 111 124 128 129 130 125 120 115 111 108 107 104 105 103 98 95 93 89 83 79 72 66 61 54 47 42 37 33 31 30 30 31 30 30 29 28 28 28 27 27 27 26 26 28 29 28 28 28 28 28 29 28 24 15 1 340 316 299 292 287 278 272 268 266 260 254 251 251 251
139 174 244 183 157 102 35 65 79 97 103 96 87 72 62 81 104 106 108 118 124 123 121 119 118 115 112 108 104 102 105 105 102 99 96 91 86 81 75 68 61 53 48 43 36 33 31 30 30 30 30 30 29 28 29 29 29 29 29 28 27 27 28 27 27 28 29 28 29 30 29 26 22 14 359 340 322 308 294 280 271 268 264 258 252 250 252
130 131 104 152 139 103 99 105 104 107 104 98 89 72 57 76 109 116 117 118 120 119 120 121 122 120 113 102 94 99 104 103 102 100 95 89 84 78 73 67 60 54 47 42 38 35 33 32 29 29 29 29 30 30 30 30 30 30 30 29 28 27 28 28 27 28 28 27 28 29 29 29 29 27 24 15 1 344 323 303 288 278 270 264 259 256 256
124 107 83 94 129 151 140 121 134 135 87 55 93 85 72 72 104 119 121 122 125 127 128 130 129 124 111 95 87 100 106 104 101 97 92 87 82 77 73 68 63 57 49 46 45 41 37 34 30 27 27 28 31 32 31 30 30 30 30 29 28 27 27 28 28 28 27 26 26 27 28 29 29 29 29 28 24 15 358 337 319 301 283 269 261 256 255
120 113 103 117 152 187 180 154 151 125 105 135 119 96 97 110 128 131 129 131 135 136 136 138 137 128 109 92 103 116 111 106 102 95 88 84 81 79 76 72 67 58 51 52 51 45 39 35 30 27 25 25 30 33 32 30 29 29 30 29 27 27 26 27 27 28 27 25 25 27 28 29 29 28 29 29 27 24 18 9 354 333 308 286 271 260 252
144 121 120 153 168 177 160 152 146 132 137 163 178 125 132 150 150 145 140 141 145 146 146 148 149 141 114 131 152 136 119 111 105 96 89 85 82 78 75 70 61 54 52 55 52 44 39 35 31 29 28 28 30 32 32 31 29 29 28 27 27 27 27 27 27 28 28 27 27 27 28 29 29 29 29 29 27 25 23 19 11 357 337 313 293 276 261
128 103 103 140 141 61 138 142 141 139 144 165 186 180 158 161 163 158 151 150 152 152 150 152 163 185 148 153 156 142 126 118 110 99 92 87 83 80 75 68 60 54 52 49 44 39 37 34 31 30 30 31 33 32 31 32 31 29 27 26 27 28 29 30 30 30 30 29 28 29 31 31 30 31 31 31 29 29 29 25 19 12 1 345 323 300 281
103 97 105 112 80 146 147 135 137 154 159 170 188 135 139 154 161 162 157 154 153 152 153 156 150 123 135 144 145 138 128 122 110 97 90 88 86 82 75 67 59 53 48 42 39 38 36 33 30 29 30 32 34 34 34 34 33 30 26 26 28 30 32 33 33 33 31 29 29 30 32 32 31 31 33 34 34 35 36 36 35 36 34 26 12 353 320
97 86 98 107 105 155 155 128 130 155 172 177 120 102 135 150 157 160 157 154 152 151 148 139 127 124 130 136 136 133 130 124 116 109 103 99 93 82 70 59 51 46 43 40 37 36 34 31 29 29 30 32 35 37 38 36 35 31 28 28 29 29 32 35 36 35 33 30 28 27 27 27 27 29 32 34 36 38 39 39 42 45 47 47 46 45 43
103 86 118 139 136 151 155 140 133 164 250 146 128 124 133 146 151 151 150 152 154 150 137 130 130 129 130 133 131 129 128 122 117 113 105 93 79 64 54 45 38 37 36 34 32 30 29 29 28 27 29 32 35 38 38 36 34 32 31 32 32 30 30 32 34 35 34 32 30 28 27 29 31 32 31 29 30 34 37 39 42 45 46 45 46 48 51
188 121 143 153 72 123 153 157 144 142 135 140 141 138 138 145 150 150 150 154 159 153 139 135 134 131 130 132 130 129 126 121 115 108 95 81 69 59 49 39 33 32 32 31 30 27 25 26 27 26 27 30 32 36 38 36 33 34 36 35 33 31 31 30 30 31 31 32 32 30 30 32 35 38 38 34 30 28 28 32 36 41 44 41 39 41 43
86 77 97 109 87 103 126 129 118 123 126 138 149 149 145 147 154 156 155 156 158 153 142 138 135 131 132 133 132 130 125 118 109 98 85 76 67 56 47 39 34 31 31 31 32 30 27 27 26 25 27 29 30 33 36 36 34 34 34 32 29 30 31 30 28 27 27 29 32 32 31 31 35 40 42 42 42 39 37 35 33 31 31 31 31 34 38
102 69 70 94 98 95 101 106 111 121 130 140 151 151 145 143 151 157 156 156 157 152 144 138 134 133 135 135 132 128 120 110 102 92 82 73 62 52 43 35 30 29 30 34 37 36 33 29 27 26 26 28 30 30 30 33 33 32 29 27 26 26 26 25 24 24 25 28 31 32 33 34 37 41 43 43 44 44 44 45 42 38 34 30 27 23 24
135 85 83 102 104 104 107 108 110 117 124 131 138 139 136 136 142 148 150 150 150 147 141 138 137 136 137 134 130 124 115 106 100 91 79 66 51 42 35 30 28 28 31 36 39 39 37 32 27 24 23 24 27 26 25 27 29 27 26 25 25 25 23 20 21 22 23 26 30 32 35 37 39 43 45 44 43 42 42 43 44 43 41 41 39 36 33
105 110 115 109 101 104 109 112 118 122 121 121 123 124 127 131 134 137 139 141 141 140 139 138 138 136 134 131 126 121 115 107 98 85 72 58 44 36 31 28 29 33 37 40 40 39 38 32 24 19 15 14 14 17 20 23 24 23 23 23 24 26 24 21 21 21 22 25 28 30 33 37 40 43 46 44 42 41 40 39 39 39 40 42 43 43 42
101 107 124 119 102 96 103 114 122 128 126 124 122 122 125 128 129 130 132 134 136 138 138 138 137 134 133 130 125 121 115 105 94 79 64 51 41 34 31 29 32 40 45 45 43 42 40 35 28 22 15 8 3 3 9 16 19 20 20 20 22 28 27 22 21 23 24 25 26 27 29 33 36 41 44 43 40 39 39 38 38 37 37 39 43 45 45
140 151 155 147 122 117 134 134 130 131 130 128 126 126 128 129 129 131 132 133 136 137 136 135 134 131 130 129 126 121 113 101 90 75 61 49 40 34 32 32 38 49 54 52 51 48 42 36 32 26 19 13 6 1 1 8 14 17 18 17 20 27 27 23 23 27 27 25 24 25 28 31 32 35 41 42 38 35 35 36 36 35 35 36 38 42 46
153 161 163 157 126 129 141 141 135 135 134 130 129 130 131 131 133 134 134 135 138 138 136 135 133 131 131 131 129 123 113 102 90 76 63 51 42 38 36 37 43 54 60 58 52 44 35 28 23 19 15 12 9 4 2 3 8 14 16 16 18 23 24 22 25 29 30 28 26 26 28 32 32 30 32 35 34 32 31 32 32 32 32 33 33 35 40
128 148 157 148 129 132 139 139 136 136 135 132 131 131 132 133 134 136 136 137 138 138 138 139 138 136 135 135 132 126 115 104 95 83 65 50 44 43 41 39 45 56 62 56 45 35 25 17 12 7 4 4 5 5 3 2 6 13 16 16 18 21 23 23 25 28 30 32 32 31 31 33 31 27 24 25 26 26 26 27 28 28 28 29 29 29 30
138 142 147 143 136 135 135 134 135 136 135 133 131 131 132 134 135 137 137 136 137 139 140 141 142 142 142 141 139 129 114 105 101 89 67 50 46 46 44 42 46 55 59 50 38 29 18 10 4 360 358 1 6 7 5 5 9 15 17 17 18 21 24 25 25 25 29 32 34 35 36 35 31 25 20 17 17 16 16 18 21 23 23 25 25 26 26
138 138 139 136 133 132 132 133 135 137 136 135 133 133 136 137 138 139 139 139 141 143 144 145 148 149 149 148 143 127 110 109 107 90 67 51 45 45 46 46 46 47 48 44 31 22 14 7 1 358 360 5 10 9 8 12 18 18 17 18 19 21 25 27 25 24 28 32 33 33 34 33 31 27 19 12 10 8 7 10 13 14 16 19 20 22 24
136 139 136 130 128 135 138 138 139 139 139 137 136 137 138 139 140 141 141 143 145 148 150 153 156 156 156 154 143 117 106 112 110 94 70 52 42 42 45 45 44 42 39 34 24 16 11 5 2 2 6 9 10 10 12 22 29 25 16 15 18 21 24 28 27 24 28 32 32 31 30 28 27 27 21 14 10 5 2 4 8 8 9 13 14 13 16
136 142 141 136 137 143 143 140 140 140 140 140 140 140 141 142 143 144 146 149 152 155 158 160 162 162 163 159 138 113 109 113 112 103 79 46 36 40 39 36 37 36 34 30 23 15 10 7 6 9 12 12 12 15 19 27 35 29 15 13 15 16 17 22 25 23 24 28 28 26 27 25 23 22 19 15 13 8 1 360 2 3 5 9 8 8 10
138 143 141 138 139 141 142 141 141 141 142 143 145 145 146 147 148 150 153 157 160 163 165 169 171 171 169 153 129 124 125 120 114 108 91 46 35 40 33 24 24 27 30 33 29 19 13 10 11 16 20 19 20 23 25 29 32 25 11 7 6 5 6 11 15 18 21 23 22 21 24 24 21 18 16 13 11 9 4 360 359 2 5 7 6 6 7
139 139 137 135 138 141 142 141 143 146 147 149 151 152 153 155 156 158 161 165 168 169 172 177 177 174 166 148 137 138 136 125 114 109 93 46 31 38 28 13 11 18 28 34 30 22 17 14 15 19 24 26 29 32 32 30 24 13 1 354 351 353 355 357 1 7 13 14 16 19 22 23 21 17 14 10 8 8 7 3 1 4 8 9 10 11 8
138 138 137 138 141 144 144 145 149 151 152 155 158 159 161 162 164 165 168 172 173 175 182 188 189 184 175 162 153 150 138 118 108 108 94 45 23 26 19 3 1 10 21 29 27 22 17 15 17 20 22 28 36 38 33 24 12 360 351 344 341 341 342 343 346 352 359 4 8 14 19 21 20 15 9 6 7 10 11 8 7 10 13 13 14 12 7
139 139 140 143 146 149 151 153 156 158 160 162 165 165 167 168 168 169 173 176 177 181 189 196 199 192 184 178 169 157 136 109 97 101 98 100 309 345 355 351 354 4 13 20 23 19 15 15 18 20 21 25 31 31 23 12 360 351 345 341 339 339 337 335 333 335 344 357 5 13 18 20 19 13 5 1 4 11 15 18 18 18 18 16 11 6 1
146 146 149 154 156 158 160 162 163 164 165 166 167 169 171 170 167 167 168 165 156 153 160 171 180 181 180 178 168 152 129 104 98 100 112 160 233 321 342 347 354 3 8 12 17 18 15 15 16 18 20 22 23 20 14 3 352 347 347 347 349 351 354 353 348 345 350 356 1 7 12 13 15 11 2 358 3 10 13 17 22 21 17 13 7 5 4
155 154 156 159 160 161 164 166 168 169 171 171 173 175 174 169 166 163 156 142 130 129 135 145 160 171 175 170 157 143 123 108 111 114 117 143 239 321 338 346 357 7 11 9 13 17 16 15 14 14 16 17 16 13 10 4 357 353 351 353 358 4 9 13 10 8 8 6 360 1 360 358 4 5 358 355 2 7 7 11 18 15 10 9 9 11 15
160 157 158 161 162 161 163 166 169 173 176 177 177 176 173 171 168 162 149 135 128 128 132 141 157 169 171 162 150 142 129 117 120 124 115 98 34 353 347 349 1 12 12 6 4 9 12 14 13 10 8 8 7 6 5 4 2 358 352 351 355 360 7 14 13 11 11 7 353 346 344 343 346 349 349 352 359 2 3 10 19 14 8 11 14 18 19
166 166 168 170 171 173 176 177 178 180 180 178 176 175 174 173 170 161 149 143 141 141 141 147 162 172 172 162 152 151 143 130 130 136 122 68 26 10 359 353 359 7 8 3 355 358 8 13 11 5 3 1 358 358 359 360 0 358 353 347 345 345 350 358 2 2 2 359 349 341 337 336 336 339 342 348 356 359 359 6 15 13 9 10 14 19 23
175 175 176 177 178 181 184 185 186 184 180 178 179 179 178 178 175 166 158 154 153 149 145 147 157 170 180 177 173 173 174 165 155 169 193 322 347 347 346 347 347 352 356 352 336 340 4 14 8 360 358 357 352 351 353 355 356 355 351 344 337 332 330 334 340 345 346 345 343 339 337 337 339 337 335 340 351 357 356 360 8 12 7 3 3 9 23
181 181 181 181 183 184 184 184 184 181 177 177 180 182 184 183 178 171 165 162 160 155 156 168 182 192 197 199 200 205 209 211 215 231 251 274 299 315 327 334 332 332 334 329 314 318 353 12 6 357 353 355 353 353 356 358 357 356 353 346 338 330 322 320 327 335 340 341 339 336 335 339 342 339 333 332 340 350 352 354 2 7 4 0 359 4 19
184 186 187 188 188 188 188 186 183 181 181 182 184 186 188 187 180 173 170 169 168 167 178 201 212 214 215 218 223 228 231 234 242 255 265 275 284 294 310 323 321 312 308 305 297 296 328 359 3 356 354 359 3 6 8 7 2 358 355 349 343 337 327 317 317 324 332 338 340 337 337 341 342 340 335 331 333 342 348 348 353 1 2 358 357 3 16
188 188 191 192 192 194 195 191 187 187 189 190 191 194 193 188 182 177 177 179 180 185 202 223 230 232 231 230 233 238 243 248 255 261 267 275 282 289 300 311 310 306 308 306 288 271 300 341 354 355 358 5 9 10 12 10 4 359 356 350 344 339 333 325 320 323 331 340 343 340 338 340 341 340 339 335 332 335 339 339 342 351 354 350 349 357 13
193 192 193 195 197 201 202 196 191 190 191 193 197 200 197 190 185 185 185 183 185 197 220 238 241 238 232 228 230 239 247 252 259 264 266 276 288 293 299 305 305 308 315 312 282 260 275 318 342 351 360 6 4 3 6 6 1 358 354 349 343 339 334 327 320 321 331 341 345 344 341 339 335 334 338 338 334 330 329 330 334 340 342 342 343 345 353
199 198 199 201 203 206 203 196 193 193 193 193 195 196 194 191 190 190 189 190 198 216 234 241 239 234 229 228 232 241 249 256 263 265 269 282 289 288 293 304 306 307 315 311 279 246 246 287 332 347 357 359 353 352 358 1 358 356 355 352 349 346 341 333 324 322 325 332 337 337 334 332 328 327 331 335 336 336 336 334 331 333 337 338 336 336 333
202 204 206 206 205 202 198 194 194 196 194 192 190 189 189 189 191 193 195 200 208 214 214 213 215 220 226 233 241 248 255 263 268 266 268 278 281 278 285 300 301 303 311 309 269 229 223 264 330 346 351 348 342 343 351 356 357 357 358 359 2 3 359 349 336 328 327 327 329 328 326 323 319 318 322 327 331 335 338 333 327 330 336 337 334 334 331
206 208 208 203 197 194 192 193 194 194 192 189 187 186 188 192 197 201 203 207 207 202 194 195 215 232 238 245 252 255 259 265 268 266 266 270 271 272 281 290 292 294 301 295 250 223 225 258 322 342 345 339 333 335 343 350 353 357 359 2 7 11 11 3 349 335 328 323 320 319 320 319 315 311 311 317 323 327 328 326 323 326 333 335 331 332 335
208 206 200 194 191 190 191 192 192 193 193 191 188 187 191 196 201 207 212 214 210 204 202 214 246 263 262 257 254 253 257 263 264 263 263 262 262 267 277 285 286 285 285 274 247 236 240 260 302 328 335 333 327 327 332 337 343 351 357 1 3 5 4 359 349 337 329 323 318 314 312 313 311 307 302 303 310 316 318 316 313 314 322 329 329 329 335
200 194 190 189 190 191 192 193 194 196 197 194 192 192 195 199 203 210 216 217 214 212 214 229 251 268 272 264 249 244 251 258 260 262 264 263 262 268 276 284 284 277 268 257 247 244 247 262 292 317 330 332 329 325 325 325 328 335 343 350 355 357 356 352 349 347 346 345 342 336 325 317 311 307 303 302 303 307 311 310 305 300 304 317 326 328 329
190 187 188 190 192 192 193 196 198 198 198 198 197 198 199 200 203 209 213 214 216 220 224 234 247 259 265 261 248 244 250 257 262 267 271 271 271 273 277 280 278 271 260 249 243 246 254 269 290 310 326 333 333 330 326 321 320 322 325 329 337 344 346 347 350 356 1 6 9 8 1 349 334 320 312 307 305 307 312 313 307 296 289 295 310 321 325
188 189 190 191 193 196 198 200 200 199 201 202 203 203 203 203 206 212 217 221 225 228 231 238 247 254 256 256 254 252 254 259 266 273 275 275 276 276 276 277 276 269 258 248 247 252 261 273 287 301 315 325 329 330 326 319 314 313 314 314 316 322 330 336 340 347 357 6 11 12 11 8 2 352 337 317 303 299 304 309 310 303 294 290 292 295 306
190 192 192 194 198 201 201 200 200 202 205 204 200 198 202 208 212 217 221 225 229 231 235 240 245 247 250 255 257 256 258 264 271 278 279 277 275 275 275 275 274 268 260 256 257 259 262 270 282 293 302 308 313 314 312 310 309 311 311 310 307 306 309 317 324 329 337 347 355 360 2 3 3 3 360 350 329 307 295 295 301 306 303 297 292 286 280
192 194 196 199 202 203 204 204 205 205 205 203 199 197 202 207 210 213 217 223 229 233 236 239 241 243 248 254 258 260 263 271 279 286 285 279 275 274 274 272 272 271 269 267 266 265 264 269 279 289 297 302 306 305 303 302 305 307 308 308 306 301 298 301 306 312 319 326 334 341 346 348 350 354 356 357 352 339 312 290 286 289 289 288 287 282 271
194 197 199 202 205 208 210 210 206 201 199 201 203 204 203 203 206 212 220 226 229 231 230 232 239 245 248 250 254 255 259 270 284 294 292 282 274 272 270 268 270 275 276 274 273 272 272 274 281 290 297 301 303 302 300 299 300 300 299 301 301 299 295 293 294 298 304 310 314 319 324 330 335 341 344 348 350 348 336 312 290 282 282 284 281 273 263
197 199 200 202 205 208 207 204 201 200 201 203 206 204 201 199 202 209 212 212 212 212 214 223 235 243 243 241 242 245 253 267 285 299 299 286 272 269 270 271 276 285 288 284 279 275 274 278 283 289 294 297 299 299 298 296 296 296 295 294 293 293 292 288 286 288 292 297 301 304 308 311 317 324 330 335 340 344 345 337 313 290 285 290 285 271 259